User: anonymous   Login
Location: Castelbiague
(43.0361°N, 0.9246°E)
Time: 11:12:34
(UTC+00:00)
Language:

ERS-1 Rocket - Orbit

View from above orbital plane
View from above orbital plane
View from above satellite
View from above satellite

Ground track
Ground track

The orbit data is extracted from the following two-line orbital elements,

1 21610U 91050F   21270.68607860  .00000036  00000-0  24874-4 0  9996
2 21610  98.4147 339.8778 0002146 308.3316 213.8138 14.40965718584982
Epoch (UTC): 27 September 2021 16:27:57
Eccentricity: 0.0002146
inclination: 98.4147°
perigee height: 754 km
apogee height: 757 km
right ascension of ascending node: 339.8778°
argument of perigee: 308.3316°
revolutions per day: 14.40965718
mean anomaly at epoch: 213.8138°
orbit number at epoch: 58498

The dashed part of the orbit path shows where the satellite is in the earth's shadow,  

DLR